User: anonymous
Location: Observatorio Las Palmas
(29.0667°N, 110.9333°W)
Time: 14:35:11
(UTC-07:00)
Language:

Skynet4D Del rocket - Orbit

View from above orbital plane
View from above orbital plane
View from above satellite
View from above satellite

Ground track
Ground track

The orbit data is extracted from the following two-line orbital elements,

1 25135U 98002B   14294.41970545  .00000258  00000-0  12540-3 0  2386
2 25135 026.8832 252.2086 0356809 035.7387 113.2018 13.62268104836170
Epoch (UTC): 21 October 2014 10:04:22
Eccentricity: 0.0356809
inclination: 26.8832°
perigee height: 763 km
apogee height: 1291 km
right ascension of ascending node: 252.2086°
argument of perigee: 35.7387°
revolutions per day: 13.62268104
mean anomaly at epoch: 113.2018°
orbit number at epoch: 83617

The dashed part of the orbit path shows where the satellite is in the earth's shadow,  

DLR